Latest Weather Observations for Yamba

IDN60801

Issued at 11:33 am EST Saturday 30 July 2016 (issued every 30 minutes, with the page automatically refreshed every 10 minutes)

About weather observations | Map of weather stations | Latest weather observations for NSW | Other Formats
Station Details ID: 058012 Name: YAMBA PILOT STATION Lat: -29.43 Lon: 153.36 Height: 27.4 m
Data from the previous 72 hours. | See also: Recent months at Yamba
Date/Time
EST
Temp
°C
App
Temp
°C
Dew
Point
°C
Rel
Hum
%
Delta-T
°C
Wind Press
QNH
hPa
Press
MSL
hPa
Rain since
9am
mm
Dir  Spd
km/h
Gust
km/h
Spd
kts
Gust
kts
30/11:30am 19.0 15.6 11.1 60 4.3 SSE 20 32 11 17 1020.6 1020.6 0.0
30/11:00am 17.5 15.0 9.7 60 4.1 SSW 13 17 7 9 1021.0 1021.0 0.0
30/10:30am 16.7 14.3 8.7 59 4.1 SSW 11 17 6 9 1021.4 1021.4 0.0
30/10:00am 16.0 13.6 7.2 56 4.3 SW 9 19 5 10 1021.6 1021.6 0.0
30/09:30am 14.4 11.9 6.7 60 3.7 SW 9 19 5 10 1021.6 1021.6 0.0
30/09:00am 12.8 9.9 6.4 65 3.0 WSW 11 17 6 9 1021.5 1021.5 0.0
30/08:30am 11.4 8.5 6.7 73 2.2 WSW 11 19 6 10 1021.3 1021.3 0.0
30/08:00am 10.3 7.4 6.5 77 1.8 WSW 11 19 6 10 1021.2 1021.2 0.0
30/07:30am 9.3 6.1 6.9 85 1.1 WSW 13 17 7 9 1020.9 1020.9 0.0
30/07:00am 8.7 5.9 7.0 89 0.8 WSW 11 15 6 8 1020.6 1020.6 0.0
30/06:30am 8.6 6.2 7.1 90 0.7 WSW 9 13 5 7 1020.4 1020.4 0.0
30/06:00am 8.8 6.5 7.3 90 0.7 WSW 9 13 5 7 1019.9 1019.9 0.0
30/05:30am 8.9 6.2 7.5 91 0.7 WSW 11 15 6 8 1019.5 1019.5 0.0
30/05:00am 9.3 6.7 7.9 91 0.7 WSW 11 15 6 8 1019.4 1019.4 0.0
30/04:30am 9.7 7.1 7.8 88 0.9 WSW 11 15 6 8 1019.1 1019.1 0.0
30/04:00am 10.1 8.0 8.4 89 0.8 W 9 15 5 8 1019.0 1019.0 0.0
30/03:30am 10.5 8.2 8.9 90 0.8 W 11 15 6 8 1019.1 1019.1 0.0
30/03:00am 10.9 8.0 8.1 83 1.4 W 13 17 7 9 1019.1 1019.1 0.0
30/02:30am 10.6 7.3 8.2 85 1.2 W 15 20 8 11 1019.0 1019.0 0.0
30/02:00am 10.8 8.2 9.2 90 0.8 W 13 20 7 11 1019.2 1019.2 0.0
30/01:30am 10.7 8.2 9.8 94 0.5 WNW 13 17 7 9 1019.3 1019.3 0.0
30/01:00am 11.0 8.9 9.9 93 0.6 W 11 15 6 8 1019.4 1019.4 0.0
30/12:30am 11.6 9.6 10.2 91 0.7 W 11 15 6 8 1019.4 1019.4 0.0
30/12:00am 11.7 9.6 9.9 89 0.9 W 11 15 6 8 1019.2 1019.2 0.0
 
Date/Time
EST
Temp
°C
App
Temp
°C
Dew
Point
°C
Rel
Hum
%
Delta-T
°C
Wind Press
QNH
hPa
Press
MSL
hPa
Rain since
9am
mm
Dir  Spd
km/h
Gust
km/h
Spd
kts
Gust
kts
29/11:30pm 12.5 10.9 10.2 86 1.2 WNW 9 13 5 7 1019.1 1019.1 0.0
29/11:00pm 12.7 11.5 10.2 85 1.3 NW 7 11 4 6 1019.2 1019.2 0.0
29/10:30pm 13.0 11.7 9.8 81 1.6 NNW 7 11 4 6 1019.2 1019.2 0.0
29/10:00pm 13.4 12.1 10.0 80 1.7 NNW 7 11 4 6 1019.3 1019.3 0.0
29/09:30pm 14.2 13.0 10.4 78 2.0 NW 7 9 4 5 1019.3 1019.3 0.0
29/09:00pm 14.6 13.7 10.8 78 2.0 NW 6 7 3 4 1019.4 1019.4 0.0
29/08:30pm 15.1 13.6 10.7 75 2.3 NNW 9 11 5 6 1019.4 1019.4 0.0
29/08:00pm 16.1 14.8 11.3 73 2.6 NNW 9 15 5 8 1019.3 1019.3 0.0
29/07:30pm 16.8 15.1 11.3 70 3.0 NNW 11 17 6 9 1019.1 1019.1 0.0
29/07:00pm 17.3 15.7 11.6 69 3.1 N 11 17 6 9 1018.9 1018.9 0.0
29/06:30pm 17.7 16.7 12.2 70 3.0 N 9 19 5 10 1018.6 1018.6 0.0
29/06:00pm 17.8 16.7 12.0 69 3.2 N 9 19 5 10 1018.4 1018.4 0.0
29/05:30pm 17.7 16.4 11.3 66 3.5 N 9 19 5 10 1018.2 1018.2 0.0
29/05:00pm 18.2 17.0 11.7 66 3.6 N 9 15 5 8 1018.3 1018.3 0.0
29/04:30pm 19.0 17.9 11.8 63 4.0 N 9 17 5 9 1018.6 1018.6 0.0
29/04:00pm 20.1 18.7 10.8 55 5.1 N 9 17 5 9 1018.5 1018.5 0.0
29/03:30pm 21.1 19.8 11.4 54 5.4 N 9 15 5 8 1018.6 1018.6 0.0
29/03:00pm 19.9 19.1 11.7 59 4.5 NE 7 13 4 7 1018.9 1018.9 0.0
29/02:30pm 19.5 17.8 10.0 54 5.1 NE 9 13 5 7 1019.1 1019.1 0.0
29/02:00pm 19.1 17.7 10.9 59 4.4 ENE 9 11 5 6 1019.4 1019.4 0.0
29/01:30pm 18.5 16.7 9.3 55 4.8 NE 9 15 5 8 1019.8 1019.8 0.0
29/01:00pm 18.1 16.3 9.5 57 4.5 ENE 9 11 5 6 1020.1 1020.1 0.0
29/12:30pm 18.6 17.3 9.9 57 4.6 NE 7 11 4 6 1020.8 1020.8 0.0
29/12:00pm 18.4 17.1 9.2 55 4.8 SE 6 9 3 5 1021.5 1021.5 0.0
29/11:30am 19.6 18.0 8.9 50 5.6 NW 7 11 4 6 1022.1 1022.1 0.0
29/11:00am 17.5 16.1 7.3 51 5.1 SW 4 11 2 6 1022.6 1022.6 0.0
29/10:30am 16.3 14.2 8.3 59 4.1 W 9 13 5 7 1023.2 1023.2 0.0
29/10:00am 15.2 13.2 8.7 65 3.3 W 9 13 5 7 1023.5 1023.5 0.0
29/09:30am 13.3 10.5 7.1 66 3.0 WSW 11 17 6 9 1023.5 1023.5 0.0
29/09:00am 12.4 10.0 6.9 69 2.6 WSW 9 15 5 8 1023.6 1023.6 0.0
29/08:30am 11.2 8.3 6.7 74 2.1 WSW 11 15 6 8 1023.3 1023.3 0.0
29/08:00am 10.0 6.9 7.1 82 1.4 WSW 13 17 7 9 1023.4 1023.4 0.0
29/07:30am 8.8 5.6 6.9 88 0.9 W 13 17 7 9 1023.3 1023.3 0.0
29/07:00am 8.0 4.3 6.1 88 0.9 W 15 19 8 10 1023.0 1023.0 0.0
29/06:30am 7.6 4.2 6.1 90 0.7 W 13 17 7 9 1022.6 1022.6 0.0
29/06:00am 7.6 4.6 5.9 89 0.8 W 11 15 6 8 1022.4 1022.4 0.0
29/05:30am 7.9 4.6 6.2 89 0.8 WSW 13 17 7 9 1022.1 1022.1 0.0
29/05:00am 8.1 4.8 6.2 88 0.9 WSW 13 17 7 9 1021.9 1021.9 0.0
29/04:30am 8.3 5.2 7.2 93 0.5 WSW 13 19 7 10 1021.7 1021.7 0.0
29/04:00am 8.7 6.4 7.6 93 0.5 W 9 11 5 6 1021.5 1021.5 0.0
29/03:30am 9.1 6.1 7.9 92 0.6 W 13 17 7 9 1021.5 1021.5 0.0
29/03:00am 9.3 6.3 7.9 91 0.7 WSW 13 15 7 8 1021.9 1021.9 0.0
29/02:30am 9.5 6.3 8.3 92 0.6 WSW 15 17 8 9 1022.1 1022.1 0.0
29/02:00am 9.7 7.2 8.0 89 0.8 WSW 11 15 6 8 1022.1 1022.1 0.0
29/01:30am 10.7 8.5 7.9 83 1.4 SW 9 15 5 8 1022.1 1022.1 0.0
29/01:00am 11.6 9.5 8.3 80 1.6 SW 9 15 5 8 1022.1 1022.1 0.0
29/12:30am 12.3 9.1 8.6 78 1.8 WSW 15 15 8 8 1022.4 1022.4 0.0
29/12:00am 12.5 9.4 8.8 78 1.8 WSW 15 17 8 9 1022.5 1022.5 0.0
 
Date/Time
EST
Temp
°C
App
Temp
°C
Dew
Point
°C
Rel
Hum
%
Delta-T
°C
Wind Press
QNH
hPa
Press
MSL
hPa
Rain since
9am
mm
Dir  Spd
km/h
Gust
km/h
Spd
kts
Gust
kts
28/11:30pm 12.3 9.2 9.0 80 1.7 WSW 15 17 8 9 1022.7 1022.7 0.0
28/11:00pm 12.0 10.0 8.8 81 1.6 WNW 9 11 5 6 1022.7 1022.7 0.0
28/10:30pm 12.4 10.5 9.1 80 1.7 WNW 9 13 5 7 1022.8 1022.8 0.0
28/10:00pm 12.5 10.7 9.3 81 1.6 WNW 9 11 5 6 1022.9 1022.9 0.0
28/09:30pm 12.7 10.8 9.2 79 1.8 W 9 11 5 6 1022.8 1022.8 0.0
28/09:00pm 12.8 11.0 9.6 81 1.6 WNW 9 11 5 6 1022.9 1022.9 0.0
28/08:30pm 12.9 11.3 10.1 83 1.4 WNW 9 11 5 6 1023.0 1023.0 0.0
28/08:00pm 13.8 12.6 10.4 80 1.8 NW 7 9 4 5 1022.9 1022.9 0.0
28/07:30pm 14.5 13.4 10.1 75 2.3 NW 6 9 3 5 1022.9 1022.9 0.0
28/07:00pm 15.0 13.9 10.0 72 2.6 N 6 9 3 5 1022.7 1022.7 0.0
28/06:30pm 15.3 14.3 8.8 65 3.3 NNE 4 9 2 5 1022.5 1022.5 0.0
28/06:00pm 15.2 14.2 8.7 65 3.3 NNE 4 9 2 5 1022.3 1022.3 0.0
28/05:30pm 15.7 14.3 8.7 63 3.6 N 6 11 3 6 1022.2 1022.2 0.0
28/05:00pm 16.1 15.0 8.3 60 3.9 NNW 4 9 2 5 1022.0 1022.0 0.0
28/04:30pm 17.2 15.6 7.8 54 4.8 NE 6 11 3 6 1021.9 1021.9 0.0
28/04:00pm 17.8 16.0 7.8 52 5.1 ENE 7 11 4 6 1021.9 1021.9 0.0
28/03:30pm 18.2 16.3 7.6 50 5.4 E 7 9 4 5 1022.0 1022.0 0.0
28/03:00pm 18.2 15.6 7.9 51 5.2 ESE 11 15 6 8 1022.1 1022.1 0.0
28/02:30pm 18.3 15.7 7.7 50 5.4 ESE 11 15 6 8 1022.3 1022.3 0.0
28/02:00pm 18.5 15.9 7.9 50 5.4 ESE 11 15 6 8 1022.4 1022.4 0.0
28/01:30pm 18.5 15.3 7.0 47 5.8 SE 13 17 7 9 1022.6 1022.6 0.0
28/01:00pm 18.7 15.7 7.8 49 5.5 ESE 13 17 7 9 1022.9 1022.9 0.0
28/12:30pm 18.6 14.3 6.8 46 5.9 SE 19 22 10 12 1023.4 1023.4 0.0
28/12:00pm 18.6 14.5 6.4 45 6.0 SE 17 22 9 12 1023.7 1023.7 0.0
28/11:30am 18.6 15.9 5.5 42 6.4 S 9 17 5 9 1024.0 1024.0 0.0
28/11:00am 17.5 14.6 4.5 42 6.1 SW 9 15 5 8 1024.3 1024.3 0.0
28/10:30am 17.4 14.7 5.4 45 5.8 SW 9 15 5 8 1024.7 1024.7 0.0
28/10:00am 16.5 13.6 4.5 45 5.6 SW 9 15 5 8 1024.5 1024.5 0.0
28/09:30am 15.0 11.7 4.4 49 4.9 SW 11 17 6 9 1024.6 1024.6 0.0
28/09:00am 13.7 9.9 4.0 52 4.4 SW 13 22 7 12 1024.6 1024.6 0.0
28/08:30am 13.0 10.1 4.4 56 3.9 SW 9 17 5 9 1024.4 1024.4 0.0
28/08:00am 11.8 9.0 5.0 63 3.1 WSW 9 15 5 8 1024.2 1024.2 0.0
28/07:30am 10.7 7.1 4.8 67 2.7 SW 13 19 7 10 1023.9 1023.9 0.0
28/07:00am 10.1 6.4 4.5 68 2.5 SW 13 20 7 11 1023.4 1023.4 0.0
28/06:30am 10.3 6.6 4.2 66 2.7 SW 13 19 7 10 1023.0 1023.0 0.0
28/06:00am 10.4 6.6 3.9 64 2.9 SW 13 17 7 9 1022.7 1022.7 0.0
28/05:30am 10.4 7.3 3.7 63 2.9 SW 9 13 5 7 1022.3 1022.3 0.0
28/05:00am 10.6 7.5 3.4 61 3.1 SW 9 17 5 9 1021.8 1021.8 0.0
28/04:30am 10.9 7.8 3.5 60 3.3 SW 9 17 5 9 1021.4 1021.4 0.0
28/04:00am 11.1 8.0 3.6 60 3.3 SW 9 15 5 8 1021.2 1021.2 0.0
28/03:30am 11.2 7.8 4.2 62 3.1 SW 11 17 6 9 1021.2 1021.2 0.0
28/03:00am 11.1 8.4 3.9 61 3.2 WSW 7 11 4 6 1021.2 1021.2 0.0
28/02:30am 11.6 8.2 4.1 60 3.4 WSW 11 17 6 9 1021.1 1021.1 0.0
28/02:00am 11.5 7.8 4.3 61 3.2 WSW 13 17 7 9 1020.8 1020.8 0.0
28/01:30am 11.3 7.6 4.7 64 3.0 W 13 17 7 9 1020.9 1020.9 0.0
28/01:00am 11.2 7.9 4.4 63 3.0 W 11 15 6 8 1020.9 1020.9 0.0
28/12:30am 11.4 8.2 5.1 65 2.9 WSW 11 15 6 8 1020.9 1020.9 0.0
28/12:00am 11.0 8.1 4.9 66 2.8 WSW 9 11 5 6 1020.9 1020.9 0.0
 
Date/Time
EST
Temp
°C
App
Temp
°C
Dew
Point
°C
Rel
Hum
%
Delta-T
°C
Wind Press
QNH
hPa
Press
MSL
hPa
Rain since
9am
mm
Dir  Spd
km/h
Gust
km/h
Spd
kts
Gust
kts
27/11:30pm 11.5 8.7 5.2 65 2.9 WSW 9 13 5 7 1020.6 1020.6 0.0
27/11:00pm 11.8 9.0 5.2 64 3.0 WSW 9 15 5 8 1020.4 1020.4 0.0
27/10:30pm 11.9 9.7 6.2 68 2.7 WSW 7 11 4 6 1020.3 1020.3 0.0
27/10:00pm 12.6 10.9 7.7 72 2.4 SSW 6 9 3 5 1020.2 1020.2 0.0
27/09:30pm 12.9 10.2 5.8 62 3.3 SW 9 17 5 9 1020.0 1020.0 0.0
27/09:00pm 12.8 10.5 5.7 62 3.3 WSW 7 11 4 6 1019.8 1019.8 0.0
27/08:30pm 13.0 10.8 6.1 63 3.3 WSW 7 13 4 7 1019.4 1019.4 0.0
27/08:00pm 13.5 11.4 8.1 70 2.7 WSW 9 13 5 7 1019.3 1019.3 0.0
27/07:30pm 14.3 13.2 10.7 79 1.9 WNW 7 11 4 6 1019.0 1019.0 0.0
27/07:00pm 15.2 14.6 8.9 66 3.2 N 2 6 1 3 1018.6 1018.6 0.0
27/06:30pm 14.8 14.2 7.4 61 3.7 CALM 0 0 0 0 1018.1 1018.1 0.0
27/06:00pm 15.0 13.4 8.0 63 3.5 N 6 9 3 5 1017.4 1017.3 0.0
27/05:30pm 15.2 13.4 8.0 62 3.6 NNW 7 11 4 6 1016.8 1016.7 0.0
27/05:00pm 16.5 14.9 8.0 57 4.3 NNW 6 7 3 4 1016.1 1016.0 0.0
27/04:30pm 18.1 16.2 7.5 50 5.4 NNW 7 11 4 6 1015.5 1015.4 0.0
27/04:00pm 19.4 17.0 6.8 44 6.3 NW 9 13 5 7 1015.1 1015.0 0.0
27/03:30pm 19.9 16.8 7.3 44 6.4 NW 13 17 7 9 1015.0 1014.9 0.0
27/03:00pm 20.0 17.7 7.4 44 6.4 NW 9 15 5 8 1015.0 1014.9 0.0
27/02:30pm 19.6 16.9 7.4 45 6.2 NW 11 17 6 9 1014.7 1014.6 0.0
27/02:00pm 19.4 16.5 8.1 48 5.8 NW 13 19 7 10 1014.9 1014.8 0.0
27/01:30pm 19.2 16.3 8.2 49 5.7 NW 13 17 7 9 1015.1 1015.0 0.0
27/01:00pm 17.6 14.5 7.4 51 5.1 NW 13 19 7 10 1015.5 1015.4 0.0
27/12:30pm 17.0 13.7 6.5 50 5.2 WNW 13 20 7 11 1016.0 1015.9 0.0
27/12:00pm 17.1 13.7 6.0 48 5.4 WNW 13 20 7 11 1016.4 1016.3 0.0

Other Formats:

Comma delimited format used in spreadsheet applications
http://www.bom.gov.au/fwo/IDN60801/IDN60801.94589.axf

JavaScript Object Notation format (JSON) in row-major order
http://www.bom.gov.au/fwo/IDN60801/IDN60801.94589.json